Miscellaneous Local Product
Issued by NWS North Platte, NE

Home | Current Version | Previous Version | Graphics & Text | Print | Product List | Glossary On
Versions: 1 2 3 4 5 6 7 8 9 10 11 12 13 14 15 16 17 18 19 20 21 22 23 24 25 26 27 28 29 30 31 32 33 34 35 36 37 38 39 40 41 42 43 44 45 46 47 48 49 50
000
AXUS43 KLBF 011110
MISLBF


WESTERN AND NORTH CENTRAL NEBRASKA HOURLY WEATHER ROUNDUP
NATIONAL WEATHER SERVICE NORTH PLATTE NE
600 AM CDT SAT OCT 01 2016

NOTE: "FAIR" INDICATES FEW OR NO CLOUDS BELOW 12,000 FEET WITH NO
SIGNIFICANT WEATHER AND/OR OBSTRUCTIONS TO VISIBILITY.

NOTE: STATIONS NOT REPORTING VARIABLES SUCH AS SKY/WEATHER OR
PRESSURE ARE PROVIDED BY RAWS AND APRS NETWORKS AND ARE NOT UNDER
NATIONAL WEATHER SERVICE QUALITY CONTROL.

...OBSERVATIONS IN AND NEAR THE EASTERN PANHANDLE OF NEBRASKA...

CITY           SKY/WX    TMP DP  RH WIND       PRES   REMARKS
PINE RIDGE     CLEAR     53  47  79 S7        30.04F
CHADRON        CLEAR     53  45  74 S9        30.03F
ALLIANCE       CLOUDY    48  45  89 SE8       30.07F
SIDNEY         CLEAR     45  42  89 SW5       30.11S
$$

...OBSERVATIONS IN NORTHERN NEBRASKA AND FAR SOUTHERN SOUTH DAKOTA...

CITY           SKY/WX    TMP DP  RH WIND       PRES   REMARKS
WINNER         FAIR      57  45  64 S15       30.07F
VALENTINE      CLEAR     48  43  82 E7        30.09F
THEDFORD       CLOUDY    47  45  91 CALM      30.11F
AINSWORTH      CLEAR     47  44  90 S6        30.10F
O`NEILL        PTCLDY    47  42  82 S5        30.14S
ORD            PTCLDY    43  40  89 CALM      30.13S
BROKEN BOW     CLOUDY    44  42  93 CALM      30.12F
VALENTINE NWR    N/A     48  44  87 S7          N/A
BUTTE            N/A     49  43  80 SE8         N/A
HALSEY           N/A     49  44  83 CALM        N/A
EWING            N/A     45  42  88 CALM        N/A
$$

...OBSERVATIONS IN SOUTHWEST NEBRASKA AND FAR NORTHEAST COLORADO...

CITY           SKY/WX    TMP DP  RH WIND       PRES   REMARKS
WRAY           FAIR      46  43  87 CALM      30.11F
HOLYOKE        FAIR      43  39  87 S3        30.11F
IMPERIAL       CLEAR     49  44  83 SE6       30.11F
OGALLALA       CLEAR     51  45  79 CALM      30.11S
NORTH PLATTE   CLOUDY    50  45  83 E8        30.12S
MCCOOK         CLEAR     49  44  83 E5        30.12F
LEXINGTON      CLOUDY    50  45  83 CALM      30.13S
STAPLETON        N/A     52  45  76 CALM        N/A
GOTHENBURG       N/A     50  43  75 E3          N/A
CALLAWAY         N/A     45  44  96 S3          N/A
$$

...OBSERVATIONS IN CENTRAL LINCOLN COUNTY AREA...

CITY           SKY/WX    TMP DP  RH WIND       PRES   REMARKS
N.P. AIRPORT   CLOUDY    50  45  83 E8        30.12S
N.P. DOWNTOWN    N/A     53  46  77 CALM        N/A
N.P. SOUTHEAST   N/A     52  46  79 CALM        N/A
N.P. HILLCREST   N/A     52  45  77 SE5         N/A
$$

...SOME OBSERVATIONS FROM AROUND THE REGION...

CITY           SKY/WX    TMP DP  RH WIND       PRES   REMARKS
DENVER         PTCLDY    52  44  74 W9        30.15S
LARAMIE        CLEAR     40  37  89 S8        30.24F WCI  34
CHEYENNE       CLEAR     51  40  65 NW9       30.17F
SCOTTSBLUFF    CLEAR     48  44  86 E6        30.07F
RAPID CITY     CLEAR     49  46  90 CALM      30.01S
BISMARCK       PTCLDY    55  45  68 SE10      30.02F
PIERRE         CLOUDY    59  45  59 SE13      30.01F
SIOUX FALLS    MOCLDY    48  46  93 CALM      30.16S
OMAHA          CLOUDY    58  54  86 N5        30.14F
GRAND ISLAND   MOCLDY    51  47  86 E5        30.15S
KANSAS CITY    CLOUDY    56  53  90 N5        30.13R
WICHITA        CLOUDY    52  49  89 CALM      30.11S
OKLAHOMA CITY  MOCLDY    59  53  80 E5        30.09F
DALLAS         CLOUDY    64  55  72 SW3       30.08R
AMARILLO       CLEAR     52  48  86 SE10      30.12S
DODGE CITY     CLOUDY    56  47  71 SE8       30.10F
HAYS           CLOUDY    48  37  66 CALM      30.11F
GOODLAND       CLEAR     47  42  83 S6        30.11S
$$




USA.gov is the U.S. government's official web portal to all federal, state and local government web resources and services.